RH
40 41 32 32 27 27 29 31 31 48 65 75 92 91 72 70 49 38 34 23 18 21 19 20 17 17 17 18 18 18 15 20 34 38 70 75 57 34 31 37 37 40 59 58 59
48 46 37 32 28 30 29 33 37 41 66 70 80 85 67 60 50 52 32 27 26 25 24 21 19 17 18 17 16 16 16 14 16 25 36 77 64 45 34 30 36 39 42 69 56
54 54 43 37 35 31 28 30 34 36 47 68 84 71 59 59 64 42 34 29 36 31 35 28 28 27 20 19 14 12 13 14 14 13 20 48 75 51 37 35 31 35 41 46 64
64 51 51 48 38 32 29 28 27 27 34 73 92 60 64 64 60 48 35 30 28 27 28 30 27 20 17 14 11 8 9 10 11 11 12 21 68 77 47 39 36 34 35 41 43
83 56 54 50 41 35 31 29 32 29 36 57 53 40 48 53 53 36 37 33 30 30 31 40 29 20 16 12 11 10 11 11 11 12 10 13 24 74 69 43 42 42 41 34 48
88 61 55 57 44 42 32 31 37 39 38 36 38 40 62 46 41 37 33 36 33 35 44 40 36 22 14 12 11 10 5 8 10 11 13 11 15 26 77 56 45 45 46 41 36
80 67 66 63 52 44 38 36 48 53 48 41 43 45 46 43 42 42 33 33 37 38 45 36 22 13 11 10 8 5 4 3 5 8 12 12 12 14 31 66 50 51 51 49 46
63 63 72 64 71 66 44 52 59 66 61 54 50 49 46 47 52 46 43 35 32 39 37 23 15 11 8 6 5 4 3 4 4 6 8 11 9 11 15 44 68 59 61 54 55
64 58 68 65 67 64 57 56 64 67 72 65 53 50 60 63 44 38 36 31 32 38 28 17 12 8 6 5 5 4 3 3 4 5 7 7 8 11 13 18 61 69 69 61 60
59 56 58 60 68 65 63 59 61 54 60 69 63 59 55 45 29 35 33 31 41 39 23 13 10 6 6 5 5 4 4 3 4 4 6 5 8 11 10 14 24 69 84 81 75
71 60 57 49 56 55 63 67 50 60 69 80 74 61 59 38 31 34 38 34 44 32 17 11 8 6 6 5 5 5 4 4 4 4 6 6 8 10 10 13 14 24 59 100 87
64 58 64 56 60 61 67 52 69 67 52 85 90 64 40 33 35 42 35 39 45 26 15 9 7 6 6 5 6 5 4 4 4 5 6 6 8 11 9 13 15 16 17 46 99
55 47 51 50 60 51 48 58 64 61 62 80 74 57 52 39 32 44 34 45 47 24 14 9 8 7 6 5 6 6 5 5 5 5 6 6 8 9 8 10 14 16 17 16 44
42 42 48 54 53 47 53 58 71 62 60 75 64 49 35 32 32 44 36 43 47 29 14 9 8 8 6 6 7 6 6 5 6 6 7 6 7 9 9 10 13 16 20 19 22
43 45 51 65 60 57 66 69 69 69 52 64 63 40 49 33 33 40 51 45 50 31 13 9 9 8 7 7 7 7 8 7 7 8 8 8 8 9 9 11 12 16 20 20 19
47 51 63 68 68 87 83 70 83 66 55 70 66 56 53 44 39 40 50 46 48 34 15 10 10 10 8 8 8 8 8 9 8 9 10 11 10 10 9 11 14 16 18 19 20
54 70 70 78 67 77 76 73 92 62 61 73 51 67 54 45 51 45 43 48 54 34 15 11 10 9 9 10 9 9 10 12 12 12 11 11 10 10 10 11 13 16 18 18 18
61 68 89 93 82 76 78 91 82 56 68 60 58 66 52 37 55 43 44 44 48 31 16 12 10 11 10 11 10 10 11 14 14 13 12 11 11 9 9 11 12 14 16 16 16
76 73 98 79 68 75 99 79 71 58 71 75 51 47 39 51 59 49 37 44 45 27 15 14 11 12 9 13 11 12 12 14 17 16 14 12 11 12 11 12 12 13 14 14 15
56 52 57 54 73 88 90 68 59 72 68 59 55 40 40 68 62 52 40 42 46 25 14 14 12 11 10 13 13 14 14 14 15 18 17 17 15 14 12 12 13 12 14 14 14
48 59 55 85 77 78 69 59 64 67 66 51 61 44 41 59 65 55 38 40 43 26 15 13 12 11 12 13 14 14 15 16 18 17 17 17 16 15 16 13 13 13 14 14 13
56 48 72 73 70 56 54 59 74 64 53 57 63 52 57 61 57 49 38 41 42 25 15 12 12 12 13 13 13 16 14 17 18 18 20 19 21 20 17 15 14 14 13 14 14
63 78 74 66 55 52 61 82 56 62 62 64 55 61 70 56 55 46 35 41 44 24 16 12 12 12 14 14 14 15 17 17 20 23 20 19 20 22 20 18 16 15 13 12 13
71 82 69 61 48 67 68 58 67 57 58 57 71 71 70 53 52 44 33 40 45 23 15 12 12 12 16 16 14 16 16 19 21 24 24 22 22 22 20 16 14 13 13 13 14
74 58 48 57 49 68 76 79 100 69 76 87 79 74 63 49 44 42 35 41 45 22 15 12 13 13 16 17 13 16 20 19 19 21 23 22 21 19 18 16 16 14 14 14 14
49 47 56 91 100 96 100 100 99 79 85 78 64 59 54 48 42 38 40 46 46 22 15 12 13 14 16 17 14 17 19 23 23 22 22 20 18 17 17 17 15 15 14 15 14
52 59 98 95 99 100 100 100 73 75 65 62 59 58 44 44 40 38 43 53 42 23 15 12 14 14 17 17 14 18 20 22 22 22 22 22 20 19 19 18 18 17 15 15 15
Wind_Speed
43 43 41 44 43 44 42 39 39 38 39 43 49 54 55 57 56 57 59 60 64 62 57 60 58 59 65 73 79 83 97 95 97 94 94 97 99 92 85 80 76 75 72 71 67
44 44 44 46 46 47 45 44 45 44 43 44 49 55 58 58 57 62 64 68 68 63 65 67 68 67 71 75 80 85 86 90 101 103 101 102 104 103 94 84 81 77 75 75 73
46 46 46 47 48 48 50 48 47 45 44 46 51 56 57 60 62 63 71 73 73 73 73 72 72 78 80 82 83 81 79 90 95 105 109 109 109 109 102 92 85 82 80 79 78
45 47 47 48 50 51 51 50 49 49 49 49 55 59 61 65 66 70 74 79 80 76 76 78 85 84 87 90 88 71 63 85 93 101 110 115 115 114 112 102 93 88 85 84 81
47 51 49 50 52 53 54 53 52 53 55 53 57 60 62 66 68 72 79 86 86 82 79 88 90 94 94 91 93 87 82 86 86 101 106 116 120 121 118 111 102 97 92 88 87
50 51 52 52 54 56 58 57 57 58 57 57 59 62 65 67 72 78 84 88 86 86 85 85 87 98 98 97 99 95 69 79 81 94 105 109 122 127 123 119 112 104 98 94 89
56 53 54 55 57 59 60 61 61 62 62 59 61 65 68 72 80 86 90 89 88 84 81 89 100 104 102 94 89 75 65 61 67 82 100 111 118 121 129 126 119 110 104 99 93
54 56 56 57 57 61 62 64 64 68 66 66 68 70 73 77 84 89 93 91 85 84 84 95 100 98 90 75 69 63 58 63 65 82 97 113 109 112 131 131 126 118 110 106 100
55 57 57 58 60 63 66 66 68 71 72 71 72 74 78 81 88 92 90 87 85 85 89 96 95 87 72 61 60 58 53 54 65 79 91 104 102 110 124 131 130 124 118 113 107
57 56 57 59 60 64 68 70 69 73 77 74 76 78 80 83 89 91 88 85 87 82 91 93 86 71 58 53 53 51 48 51 61 74 85 93 97 108 115 127 132 129 124 117 113
60 59 60 61 62 65 68 73 75 78 79 78 77 78 82 88 89 93 92 89 85 82 87 88 73 58 51 48 45 43 43 47 56 67 77 85 95 104 108 118 130 129 126 122 118
60 63 62 63 64 66 67 71 75 79 79 78 78 79 84 87 89 97 90 85 81 81 83 78 64 51 44 38 36 37 38 43 50 56 71 80 86 95 104 109 121 129 126 123 120
62 64 63 66 67 68 69 73 77 82 80 77 80 81 84 88 89 96 86 85 81 81 80 70 55 45 40 31 28 29 32 40 48 55 66 77 84 87 93 101 110 120 126 124 121
63 64 66 67 69 71 72 75 78 84 81 78 80 80 83 88 87 89 89 85 82 79 75 65 48 42 36 30 25 25 28 35 42 45 52 64 73 74 83 95 102 108 118 124 120
65 66 67 69 72 76 77 79 82 84 83 79 78 81 84 86 89 89 89 89 81 78 71 59 42 39 31 29 23 23 24 30 36 42 48 59 67 72 75 83 94 101 109 117 121
68 69 70 72 74 79 80 81 84 82 83 78 80 83 90 95 96 93 91 88 79 76 68 56 39 35 28 26 21 20 23 26 34 40 46 53 59 63 67 77 84 93 100 111 120
70 73 73 76 78 79 80 81 82 84 83 77 77 82 89 88 94 93 91 86 81 74 65 54 37 32 25 24 20 16 18 23 32 39 44 52 61 67 72 77 83 89 96 106 113
72 77 75 79 80 80 80 84 80 85 78 76 80 84 88 87 94 96 91 83 76 70 60 52 36 32 22 20 18 16 14 19 28 37 44 51 58 66 70 74 80 88 96 102 108
74 78 79 81 80 79 79 80 83 82 74 81 85 86 85 89 95 99 89 82 75 66 54 49 36 28 24 19 16 13 12 18 26 32 40 47 53 58 64 69 75 82 89 95 101
77 76 77 82 79 78 78 79 81 76 78 83 81 87 87 92 98 101 92 77 73 64 51 43 35 27 26 17 14 12 12 17 23 30 35 40 46 52 60 67 72 79 83 90 95
75 78 81 76 77 75 78 76 74 77 81 81 85 86 86 93 98 102 91 74 70 62 48 38 33 27 23 17 11 12 11 15 21 26 32 37 39 46 51 59 66 74 78 83 90
83 79 72 76 73 76 71 70 78 79 87 86 86 89 93 98 100 98 93 71 68 59 46 36 31 25 21 19 11 11 13 14 18 25 31 33 35 39 46 52 58 65 73 79 85
80 73 76 73 74 70 71 77 80 85 85 85 85 88 95 102 99 94 87 71 66 57 43 33 29 22 20 19 12 9 12 14 16 20 26 31 35 42 48 53 58 63 69 75 80
82 72 73 73 69 73 77 78 83 87 89 91 90 96 97 99 91 87 81 69 63 54 40 31 28 21 18 16 12 12 14 15 17 20 24 29 33 38 44 51 56 60 65 69 73
79 71 70 74 76 80 84 81 86 96 92 92 98 99 97 96 88 80 72 63 60 51 38 30 27 20 18 14 11 10 13 16 20 24 25 27 31 35 38 39 44 51 56 61 66
74 76 79 83 83 84 81 84 95 98 100 102 97 93 92 86 78 71 66 57 55 47 35 29 24 18 16 12 11 11 15 18 19 19 22 24 26 30 32 35 38 43 49 55 61
81 80 82 84 83 80 78 91 99 99 101 98 93 91 85 76 70 64 56 52 51 44 34 26 22 15 13 12 10 12 16 17 19 20 20 21 23 25 28 31 35 38 44 50 54
Wind_Direction
345 346 345 346 347 344 335 328 325 320 316 318 318 317 316 314 314 314 313 312 310 302 292 290 279 275 272 264 255 252 247 244 242 238 237 238 240 236 234 233 234 232 228 229 223
340 342 342 344 346 345 340 331 326 322 317 316 316 316 314 312 313 314 314 313 315 309 304 298 289 281 277 272 261 255 250 246 242 240 236 235 237 238 233 230 232 233 231 230 228
335 337 338 339 340 342 339 336 328 326 321 317 315 314 312 313 312 311 314 314 311 308 304 297 291 285 277 276 272 260 253 249 244 241 237 234 234 237 234 228 228 228 229 229 228
329 335 335 335 334 337 338 337 334 331 329 324 319 318 315 316 314 311 311 311 312 308 301 299 291 283 280 278 273 266 256 251 247 244 238 233 232 232 234 228 224 226 228 231 231
327 332 331 331 332 332 334 335 336 335 334 324 319 319 318 317 313 314 314 312 311 311 306 304 296 288 285 283 284 287 273 264 249 239 238 233 229 230 231 229 225 225 228 228 231
322 327 327 328 329 330 332 337 336 336 333 327 322 321 318 317 317 317 317 316 315 312 310 301 295 289 294 294 293 289 275 269 257 240 236 235 230 227 228 227 225 224 225 226 229
323 322 324 325 327 329 329 335 336 335 335 326 323 321 319 317 318 321 322 319 314 314 311 298 294 299 300 294 287 279 266 247 244 235 231 234 230 226 227 227 224 224 223 226 227
322 322 322 324 326 327 329 333 335 334 331 329 325 321 320 321 322 319 319 318 316 317 306 299 302 306 302 295 284 275 262 249 234 228 226 229 228 224 225 226 224 222 222 224 225
320 322 322 323 326 326 328 332 334 332 331 328 326 325 323 321 321 321 320 319 320 317 307 306 311 308 301 293 284 276 262 248 234 226 224 228 225 223 223 224 224 222 222 221 223
319 322 320 322 323 324 325 329 331 331 330 328 327 326 324 324 325 325 323 324 327 320 312 315 314 307 302 292 280 272 260 244 233 224 223 227 222 223 221 222 223 223 220 221 222
317 320 321 322 322 325 326 327 329 330 331 328 327 327 325 325 326 329 328 329 329 320 318 318 315 308 303 291 278 267 256 243 233 226 222 226 222 220 220 220 222 222 222 220 220
318 319 319 320 321 323 324 325 326 327 331 328 327 327 327 328 329 331 330 332 329 320 320 321 317 312 304 295 280 266 255 242 233 225 221 220 222 221 219 217 220 221 221 219 220
318 319 318 318 318 320 321 323 326 328 329 327 327 326 325 326 330 333 334 336 331 323 324 324 321 313 305 300 284 271 256 242 232 223 218 218 219 220 219 217 220 220 220 219 219
316 318 314 317 317 318 320 322 325 326 328 326 327 327 327 330 332 338 337 339 334 327 325 326 325 313 308 306 293 268 253 241 233 227 222 220 219 220 217 216 217 218 219 218 218
316 317 314 314 315 316 317 319 322 324 327 326 327 326 328 329 335 338 339 340 338 332 328 329 328 315 312 307 297 272 249 238 227 222 218 215 216 216 215 215 217 217 217 218 218
315 316 314 315 315 314 315 319 321 323 326 325 326 327 329 332 337 339 339 341 338 335 330 330 330 318 317 307 299 273 248 234 226 216 214 213 213 215 214 213 214 216 217 217 217
314 313 313 314 316 316 317 319 322 323 324 324 327 328 330 331 336 341 340 340 341 336 333 331 332 318 322 311 302 273 247 230 219 212 212 213 212 209 210 211 210 212 214 215 217
312 315 311 313 315 315 316 318 320 322 323 325 328 328 330 331 337 341 342 341 340 337 335 332 331 319 326 313 305 279 246 225 221 215 213 213 213 213 211 211 210 212 214 214 215
312 312 310 314 314 314 316 318 319 321 322 325 329 329 330 335 338 341 341 342 338 337 338 332 332 321 326 317 305 281 246 214 213 213 214 213 214 213 212 212 212 212 214 216 217
310 311 312 312 312 313 315 316 319 321 323 324 328 329 330 336 339 341 340 341 338 338 338 334 331 323 321 320 303 276 244 228 212 208 210 209 209 209 212 213 213 214 214 216 219
308 309 312 309 312 313 314 317 319 320 323 326 331 329 332 334 337 338 340 341 337 338 338 334 332 323 322 320 303 270 237 225 217 211 210 208 206 206 211 215 215 215 215 216 218
307 312 310 310 313 314 317 317 319 322 326 329 330 331 333 333 334 336 338 341 337 338 339 334 331 322 321 312 293 262 231 209 212 214 211 206 197 199 204 210 215 217 217 217 217
308 310 310 311 315 316 316 318 323 327 328 330 330 330 332 332 332 334 337 340 337 337 339 334 330 327 322 308 289 253 223 204 196 205 210 208 202 202 203 204 208 212 216 219 221
308 311 313 318 318 317 320 321 325 327 327 327 327 328 329 330 330 333 335 338 337 336 338 332 325 329 322 303 284 250 213 198 191 190 197 200 205 210 212 209 210 212 215 218 221
309 311 314 316 321 320 320 322 327 327 326 326 326 325 326 328 330 332 335 337 336 335 337 333 324 327 323 299 281 241 213 211 195 187 193 199 205 211 216 216 213 215 216 217 219
306 314 319 318 318 318 320 323 323 324 324 322 322 324 326 328 329 330 335 337 335 334 336 333 324 325 323 293 275 232 205 202 205 203 202 205 205 210 212 214 214 214 216 217 219
311 315 312 316 316 317 317 318 322 321 322 321 321 323 325 326 327 330 335 336 335 337 335 333 325 327 321 291 270 242 211 206 204 204 208 214 214 215 215 215 214 212 214 216 217